UAL534 PHNL-KLAX

Flight info

Callsign UAL534
Flight time N/A
Altitude 35000
Route PHNL/04R N0495F350 MKK5 CODDY DCT EBBER R577 ELKEY RYDRR2 KLAX/24R
Aircraft B77W/H-V/N

Departure

Time 2026-05-06 20:23
Airport Daniel K. Inouye International Airport (PHNL)

Arrival

Time N/A
Airport Los Angeles International Airport (KLAX)
Time Latitude Longitude Altitude Speed Heading
2026-05-06 19:51 21.33001 -157.91759 29 ft 0 kts 99°
2026-05-06 20:03 21.33001 -157.91761 10 ft 2 kts 99°
2026-05-06 20:03 21.33004 -157.91776 28 ft 2 kts 99°
2026-05-06 20:03 21.33006 -157.91790 27 ft 2 kts 99°
2026-05-06 20:04 21.33008 -157.91800 27 ft 2 kts 99°
2026-05-06 20:04 21.33010 -157.91820 27 ft 2 kts 98°
2026-05-06 20:04 21.33012 -157.91834 27 ft 2 kts 97°
2026-05-06 20:04 21.33014 -157.91849 29 ft 2 kts 95°
2026-05-06 20:05 21.33015 -157.91858 29 ft 2 kts 91°
2026-05-06 20:05 21.33014 -157.91874 29 ft 1 kts 72°
2026-05-06 20:05 21.33012 -157.91881 28 ft 1 kts 49°
2026-05-06 20:05 21.33008 -157.91886 25 ft 1 kts 25°
2026-05-06 20:06 21.32998 -157.91890 25 ft 2 kts 10°
2026-05-06 20:06 21.32989 -157.91891 27 ft 2 kts
2026-05-06 20:06 21.32976 -157.91893 27 ft 2 kts
2026-05-06 20:06 21.32962 -157.91896 28 ft 2 kts
2026-05-06 20:07 21.32948 -157.91898 27 ft 2 kts
2026-05-06 20:07 21.32935 -157.91901 28 ft 2 kts
2026-05-06 20:07 21.32921 -157.91903 29 ft 2 kts
2026-05-06 20:07 21.32907 -157.91906 28 ft 2 kts
2026-05-06 20:08 21.32894 -157.91908 27 ft 2 kts
2026-05-06 20:08 21.32880 -157.91910 27 ft 2 kts
2026-05-06 20:08 21.32867 -157.91913 27 ft 2 kts 14°
2026-05-06 20:08 21.32854 -157.91916 28 ft 2 kts 18°
2026-05-06 20:09 21.32841 -157.91921 28 ft 2 kts 21°
2026-05-06 20:09 21.32829 -157.91927 27 ft 2 kts 25°
2026-05-06 20:09 21.32817 -157.91933 26 ft 2 kts 29°
2026-05-06 20:09 21.32806 -157.91940 27 ft 2 kts 34°
2026-05-06 20:10 21.32795 -157.91948 28 ft 2 kts 41°
2026-05-06 20:10 21.32786 -157.91957 27 ft 2 kts 50°
2026-05-06 20:10 21.32779 -157.91967 26 ft 2 kts 62°
2026-05-06 20:10 21.32775 -157.91977 29 ft 1 kts 77°
2026-05-06 20:11 21.32773 -157.91989 29 ft 2 kts 89°
2026-05-06 20:11 21.32773 -157.92004 29 ft 2 kts 91°
2026-05-06 20:11 21.32774 -157.92018 29 ft 2 kts 91°
2026-05-06 20:11 21.32774 -157.92029 29 ft 1 kts 91°
2026-05-06 20:12 21.32774 -157.92036 29 ft 1 kts 90°
2026-05-06 20:12 21.32774 -157.92042 29 ft 1 kts 90°
2026-05-06 20:12 21.32774 -157.92048 29 ft 1 kts 90°
2026-05-06 20:12 21.32774 -157.92055 29 ft 0 kts 90°
2026-05-06 20:14 21.32774 -157.92053 29 ft 1 kts 90°
2026-05-06 20:14 21.32769 -157.92007 29 ft 8 kts 106°
2026-05-06 20:14 21.32751 -157.91952 27 ft 8 kts 117°
2026-05-06 20:14 21.32715 -157.91908 29 ft 8 kts 138°
2026-05-06 20:15 21.32671 -157.91872 29 ft 8 kts 144°
2026-05-06 20:15 21.32625 -157.91839 29 ft 8 kts 146°
2026-05-06 20:15 21.32574 -157.91832 29 ft 8 kts 203°
2026-05-06 20:15 21.32537 -157.91875 29 ft 8 kts 249°
2026-05-06 20:16 21.32527 -157.91934 29 ft 8 kts 266°
2026-05-06 20:16 21.32525 -157.91993 29 ft 8 kts 269°
2026-05-06 20:16 21.32525 -157.92054 29 ft 8 kts 269°
2026-05-06 20:16 21.32525 -157.92115 29 ft 8 kts 270°
2026-05-06 20:17 21.32516 -157.92179 29 ft 9 kts 239°
2026-05-06 20:17 21.32467 -157.92191 29 ft 8 kts 167°
2026-05-06 20:17 21.32410 -157.92165 29 ft 10 kts 154°
2026-05-06 20:17 21.32343 -157.92125 29 ft 12 kts 149°
2026-05-06 20:18 21.32264 -157.92075 28 ft 14 kts 149°
2026-05-06 20:18 21.32184 -157.92067 29 ft 11 kts 214°
2026-05-06 20:18 21.32133 -157.92126 29 ft 11 kts 231°
2026-05-06 20:18 21.32085 -157.92191 29 ft 12 kts 232°
2026-05-06 20:19 21.32030 -157.92268 29 ft 14 kts 234°
2026-05-06 20:19 21.31967 -157.92356 29 ft 15 kts 226°
2026-05-06 20:19 21.31897 -157.92356 29 ft 10 kts 156°
2026-05-06 20:19 21.31837 -157.92313 29 ft 10 kts 143°
2026-05-06 20:20 21.31779 -157.92266 29 ft 10 kts 143°
2026-05-06 20:20 21.31721 -157.92219 29 ft 11 kts 143°
2026-05-06 20:20 21.31657 -157.92171 29 ft 12 kts 144°
2026-05-06 20:20 21.31582 -157.92158 29 ft 10 kts 208°
2026-05-06 20:21 21.31535 -157.92221 29 ft 11 kts 233°
2026-05-06 20:21 21.31485 -157.92293 29 ft 14 kts 233°
2026-05-06 20:21 21.31407 -157.92404 29 ft 22 kts 233°
2026-05-06 20:21 21.31324 -157.92522 29 ft 15 kts 233°
2026-05-06 20:22 21.31299 -157.92604 29 ft 11 kts 289°
2026-05-06 20:22 21.31350 -157.92662 29 ft 11 kts 322°
2026-05-06 20:22 21.31421 -157.92665 29 ft 11 kts 29°
2026-05-06 20:22 21.31466 -157.92613 29 ft 0 kts 53°
2026-05-06 20:23 21.31473 -157.92603 29 ft 12 kts 53°
2026-05-06 20:23 21.31721 -157.92253 29 ft 107 kts 53°
2026-05-06 20:23 21.32354 -157.91367 37 ft 188 kts 50°
2026-05-06 20:23 21.33191 -157.90178 689 ft 204 kts 53°
2026-05-06 20:24 21.33727 -157.88796 1686 ft 202 kts 84°
2026-05-06 20:24 21.33501 -157.87319 2317 ft 211 kts 109°
2026-05-06 20:24 21.32961 -157.85754 2556 ft 236 kts 108°
2026-05-06 20:24 21.32404 -157.84025 3005 ft 254 kts 108°
2026-05-06 20:25 21.31831 -157.82172 3653 ft 262 kts 108°
2026-05-06 20:25 21.31272 -157.80313 4377 ft 269 kts 107°
2026-05-06 20:25 21.30716 -157.78382 5189 ft 272 kts 107°
2026-05-06 20:25 21.30158 -157.76423 5961 ft 277 kts 108°
2026-05-06 20:26 21.29599 -157.74432 6700 ft 281 kts 108°
2026-05-06 20:26 21.29033 -157.72402 7403 ft 288 kts 107°
2026-05-06 20:26 21.28464 -157.70323 8138 ft 293 kts 107°
2026-05-06 20:26 21.27887 -157.68221 8935 ft 295 kts 107°
2026-05-06 20:27 21.27305 -157.66097 9706 ft 300 kts 107°
2026-05-06 20:27 21.26714 -157.63934 10376 ft 305 kts 108°
2026-05-06 20:27 21.26098 -157.61683 10692 ft 327 kts 108°
2026-05-06 20:27 21.25435 -157.59256 10868 ft 351 kts 108°
2026-05-06 20:28 21.24725 -157.56657 11039 ft 375 kts 107°
2026-05-06 20:28 21.23978 -157.53917 11475 ft 389 kts 107°
2026-05-06 20:28 21.23212 -157.51104 12093 ft 397 kts 107°
2026-05-06 20:28 21.22434 -157.48246 12866 ft 402 kts 108°
2026-05-06 20:29 21.21647 -157.45360 13624 ft 406 kts 108°
2026-05-06 20:29 21.20850 -157.42438 14318 ft 411 kts 108°
2026-05-06 20:29 21.20044 -157.39485 14984 ft 415 kts 108°
2026-05-06 20:29 21.19229 -157.36505 15670 ft 418 kts 107°
2026-05-06 20:30 21.18408 -157.33503 16350 ft 422 kts 107°
2026-05-06 20:30 21.16739 -157.27408 17640 ft 431 kts 107°
2026-05-06 20:30 21.15891 -157.24314 18277 ft 435 kts 107°
2026-05-06 20:31 21.15039 -157.21191 18834 ft 436 kts 105°
2026-05-06 20:31 21.14538 -157.18008 19212 ft 444 kts 91°
2026-05-06 20:31 21.14794 -157.14714 19857 ft 444 kts 78°
2026-05-06 20:31 21.15696 -157.11558 20439 ft 443 kts 67°
2026-05-06 20:32 21.16929 -157.08508 20873 ft 450 kts 65°
2026-05-06 20:32 21.18204 -157.05442 21477 ft 451 kts 65°
2026-05-06 20:32 21.19476 -157.02376 22133 ft 451 kts 66°
2026-05-06 20:32 21.20742 -156.99282 22671 ft 455 kts 66°
2026-05-06 20:33 21.21998 -156.96157 23172 ft 459 kts 66°
2026-05-06 20:33 21.23252 -156.93002 23722 ft 461 kts 66°
2026-05-06 20:33 21.24505 -156.89833 24167 ft 463 kts 66°
2026-05-06 20:33 21.25766 -156.86641 24597 ft 466 kts 66°
2026-05-06 20:34 21.27035 -156.83428 24999 ft 469 kts 66°
2026-05-06 20:34 21.28312 -156.80197 25400 ft 473 kts 66°
2026-05-06 20:34 21.29600 -156.76939 25813 ft 476 kts 66°
2026-05-06 20:34 21.30893 -156.73666 26240 ft 478 kts 66°
2026-05-06 20:35 21.32127 -156.70343 26647 ft 481 kts 70°
2026-05-06 20:35 21.33042 -156.66880 27032 ft 485 kts 76°
2026-05-06 20:35 21.33666 -156.63312 27442 ft 488 kts 82°
2026-05-06 20:35 21.33967 -156.59681 27845 ft 490 kts 85°
2026-05-06 20:36 21.34180 -156.56021 28191 ft 494 kts 86°
2026-05-06 20:36 21.34379 -156.52332 28531 ft 497 kts 86°
2026-05-06 20:36 21.34579 -156.48628 28900 ft 499 kts 86°
2026-05-06 20:36 21.34789 -156.44903 29251 ft 501 kts 86°
2026-05-06 20:37 21.35008 -156.41174 29577 ft 503 kts 85°
2026-05-06 20:37 21.35236 -156.37408 29873 ft 506 kts 85°
2026-05-06 20:37 21.35467 -156.33639 30165 ft 508 kts 85°
2026-05-06 20:37 21.35701 -156.29853 30481 ft 509 kts 85°
2026-05-06 20:38 21.35934 -156.26069 30800 ft 509 kts 85°
2026-05-06 20:38 21.36168 -156.22276 31121 ft 509 kts 85°
2026-05-06 20:38 21.36399 -156.18483 31419 ft 510 kts 85°
2026-05-06 20:38 21.36628 -156.14685 31712 ft 511 kts 85°
2026-05-06 20:39 21.36856 -156.10884 32016 ft 511 kts 86°
2026-05-06 20:39 21.37083 -156.07078 32311 ft 511 kts 86°
2026-05-06 20:39 21.37310 -156.03272 32595 ft 512 kts 86°
2026-05-06 20:39 21.37537 -155.99457 32878 ft 513 kts 86°
2026-05-06 20:40 21.37763 -155.95637 33174 ft 513 kts 86°
2026-05-06 20:40 21.37989 -155.91814 33448 ft 514 kts 86°
2026-05-06 20:40 21.38211 -155.88040 33710 ft 514 kts 86°
2026-05-06 20:40 21.38438 -155.84158 33989 ft 515 kts 86°
2026-05-06 20:41 21.38662 -155.80325 34232 ft 515 kts 86°
2026-05-06 20:41 21.38885 -155.76488 34469 ft 515 kts 86°
2026-05-06 20:41 21.39104 -155.72701 34700 ft 515 kts 86°
2026-05-06 20:41 21.39328 -155.68814 34935 ft 516 kts 86°
2026-05-06 20:42 21.39547 -155.65011 35018 ft 519 kts 86°
2026-05-06 20:42 21.39989 -155.57268 35082 ft 519 kts 86°
2026-05-06 20:43 21.40425 -155.49570 35084 ft 515 kts 86°
2026-05-06 20:43 21.40854 -155.41918 35087 ft 514 kts 86°
2026-05-06 20:44 21.41281 -155.34266 35087 ft 514 kts 86°
2026-05-06 20:44 21.41704 -155.26602 35090 ft 515 kts 86°
2026-05-06 20:45 21.42125 -155.18923 35091 ft 516 kts 86°
2026-05-06 20:45 21.42710 -155.11237 35091 ft 517 kts 81°
2026-05-06 20:46 21.43865 -155.03613 35093 ft 518 kts 79°
2026-05-06 20:46 21.45074 -154.95978 35091 ft 519 kts 80°
2026-05-06 20:47 21.46251 -154.88324 35086 ft 520 kts 80°
2026-05-06 20:47 21.47400 -154.80662 35086 ft 520 kts 80°
2026-05-06 20:48 21.48540 -154.73000 35091 ft 520 kts 80°
2026-05-06 20:48 21.49679 -154.65330 35090 ft 520 kts 80°
2026-05-06 20:49 21.50815 -154.57668 35086 ft 519 kts 80°
2026-05-06 20:49 21.51940 -154.50065 35085 ft 519 kts 80°
2026-05-06 20:50 21.53069 -154.42406 35093 ft 519 kts 80°
2026-05-06 20:50 21.54195 -154.34742 35092 ft 519 kts 81°
2026-05-06 20:51 21.55317 -154.27077 35089 ft 520 kts 81°
2026-05-06 20:51 21.56436 -154.19405 35089 ft 520 kts 81°
2026-05-06 20:52 21.57553 -154.11729 35088 ft 520 kts 81°
2026-05-06 20:52 21.58667 -154.04046 35087 ft 521 kts 81°
2026-05-06 20:53 21.59778 -153.96357 35090 ft 521 kts 81°
2026-05-06 20:53 21.60886 -153.88663 35090 ft 521 kts 81°
2026-05-06 20:54 21.61803 -153.82274 35087 ft 521 kts 81°
2026-05-06 20:54 21.62905 -153.74577 35088 ft 521 kts 81°
2026-05-06 20:55 21.64003 -153.66877 35088 ft 521 kts 81°
2026-05-06 20:55 21.65098 -153.59171 35090 ft 521 kts 81°
2026-05-06 20:56 21.66190 -153.51468 35091 ft 521 kts 81°
2026-05-06 20:56 21.67278 -153.43762 35088 ft 522 kts 81°
2026-05-06 20:57 21.68363 -153.36051 35091 ft 522 kts 81°
2026-05-06 20:57 21.69445 -153.28334 35090 ft 522 kts 81°
2026-05-06 20:58 21.70538 -153.20608 35089 ft 522 kts 79°
2026-05-06 20:58 21.72491 -153.13113 35096 ft 521 kts 68°
2026-05-06 20:59 21.75563 -153.06093 35096 ft 518 kts 59°
2026-05-06 20:59 21.79055 -152.99309 35096 ft 518 kts 59°
2026-05-06 21:00 21.82542 -152.92522 35093 ft 518 kts 59°
2026-05-06 21:00 21.85990 -152.85709 35089 ft 518 kts 59°
2026-05-06 21:01 21.89412 -152.78896 35090 ft 517 kts 59°
2026-05-06 21:01 21.92825 -152.72089 35088 ft 516 kts 59°
2026-05-06 21:02 21.96209 -152.65338 35094 ft 515 kts 59°
2026-05-06 21:02 21.99614 -152.58541 35097 ft 515 kts 60°
2026-05-06 21:03 22.03014 -152.51744 35096 ft 515 kts 60°
2026-05-06 21:03 22.06408 -152.44949 35093 ft 515 kts 60°
2026-05-06 21:04 22.09798 -152.38155 35096 ft 514 kts 60°
2026-05-06 21:04 22.13183 -152.31360 35093 ft 514 kts 60°
2026-05-06 21:05 22.16565 -152.24563 35095 ft 514 kts 60°
2026-05-06 21:05 22.19941 -152.17768 35097 ft 514 kts 60°
2026-05-06 21:06 22.23313 -152.10972 35096 ft 514 kts 60°
2026-05-06 21:06 22.26682 -152.04175 35096 ft 513 kts 60°
2026-05-06 21:07 22.30046 -151.97376 35097 ft 513 kts 60°
2026-05-06 21:07 22.33409 -151.90572 35099 ft 513 kts 60°
2026-05-06 21:08 22.36757 -151.83777 35104 ft 512 kts 60°
2026-05-06 21:08 22.40070 -151.77016 35088 ft 512 kts 60°
2026-05-06 21:09 22.43398 -151.70209 35093 ft 512 kts 60°
2026-05-06 21:09 22.46722 -151.63405 35099 ft 512 kts 60°
2026-05-06 21:10 22.50043 -151.56600 35107 ft 512 kts 60°
2026-05-06 21:10 22.53362 -151.49791 35110 ft 511 kts 60°
2026-05-06 21:11 22.56675 -151.42984 35106 ft 511 kts 60°
2026-05-06 21:11 22.59985 -151.36176 35101 ft 511 kts 60°
2026-05-06 21:12 22.63291 -151.29365 35102 ft 511 kts 60°
2026-05-06 21:12 22.66593 -151.22555 35105 ft 511 kts 60°
2026-05-06 21:13 22.69890 -151.15744 35104 ft 511 kts 60°
2026-05-06 21:13 22.73183 -151.08932 35103 ft 510 kts 60°
2026-05-06 21:14 22.76474 -151.02117 35105 ft 510 kts 60°
2026-05-06 21:14 22.79760 -150.95301 35105 ft 510 kts 60°
2026-05-06 21:15 22.83044 -150.88482 35113 ft 510 kts 60°
2026-05-06 21:15 22.86325 -150.81659 35108 ft 510 kts 60°
2026-05-06 21:16 22.89601 -150.74837 35109 ft 510 kts 60°
2026-05-06 21:16 22.92851 -150.68058 35114 ft 510 kts 60°
2026-05-06 21:17 22.96121 -150.61230 35105 ft 510 kts 60°
2026-05-06 21:17 22.99386 -150.54403 35109 ft 510 kts 60°
2026-05-06 21:18 23.02647 -150.47575 35114 ft 509 kts 60°
2026-05-06 21:18 23.05903 -150.40746 35114 ft 509 kts 60°
2026-05-06 21:19 23.09158 -150.33912 35115 ft 509 kts 60°
2026-05-06 21:19 23.12408 -150.27079 35116 ft 509 kts 61°
2026-05-06 21:20 23.15656 -150.20240 35111 ft 509 kts 61°
2026-05-06 21:20 23.18898 -150.13404 35109 ft 509 kts 61°
2026-05-06 21:21 23.22135 -150.06569 35111 ft 509 kts 61°
2026-05-06 21:21 23.25350 -149.99772 35113 ft 509 kts 61°
2026-05-06 21:22 23.28581 -149.92930 35116 ft 509 kts 61°
2026-05-06 21:22 23.31809 -149.86085 35116 ft 508 kts 61°
2026-05-06 21:23 23.35033 -149.79240 35114 ft 508 kts 61°
2026-05-06 21:23 23.38254 -149.72390 35119 ft 508 kts 61°
2026-05-06 21:24 23.41472 -149.65537 35115 ft 508 kts 61°
2026-05-06 21:24 23.44685 -149.58687 35116 ft 508 kts 61°
2026-05-06 21:25 23.47893 -149.51836 35114 ft 507 kts 61°
2026-05-06 21:25 23.51074 -149.45034 35118 ft 507 kts 61°
2026-05-06 21:26 23.54272 -149.38184 35117 ft 507 kts 61°
2026-05-06 21:26 23.57465 -149.31338 35115 ft 507 kts 61°
2026-05-06 21:27 23.60654 -149.24490 35118 ft 506 kts 61°
2026-05-06 21:27 23.63838 -149.17642 35117 ft 506 kts 61°
2026-05-06 21:28 23.67019 -149.10792 35120 ft 506 kts 61°
2026-05-06 21:28 23.70198 -149.03934 35117 ft 506 kts 61°
2026-05-06 21:29 23.73372 -148.97078 35117 ft 506 kts 61°
2026-05-06 21:29 23.76545 -148.90216 35118 ft 506 kts 61°
2026-05-06 21:30 23.79712 -148.83355 35120 ft 506 kts 61°
2026-05-06 21:30 23.82876 -148.76491 35123 ft 506 kts 61°
2026-05-06 21:31 23.86036 -148.69627 35124 ft 506 kts 61°
2026-05-06 21:31 23.89193 -148.62759 35125 ft 505 kts 61°
2026-05-06 21:32 23.92342 -148.55897 35123 ft 505 kts 61°
2026-05-06 21:32 23.97061 -148.45597 35125 ft 505 kts 61°
2026-05-06 21:33 24.00200 -148.38733 35126 ft 505 kts 61°
2026-05-06 21:33 24.03337 -148.31862 35125 ft 505 kts 61°
2026-05-06 21:34 24.06468 -148.24997 35126 ft 505 kts 61°
2026-05-06 21:34 24.09599 -148.18121 35126 ft 505 kts 61°
2026-05-06 21:35 24.12704 -148.11291 35126 ft 505 kts 61°
2026-05-06 21:35 24.15828 -148.04410 35129 ft 505 kts 62°
2026-05-06 21:36 24.18949 -147.97525 35134 ft 505 kts 62°
2026-05-06 21:36 24.22067 -147.90636 35130 ft 505 kts 62°
2026-05-06 21:37 24.25184 -147.83739 35132 ft 505 kts 62°
2026-05-06 21:37 24.28295 -147.76844 35137 ft 505 kts 62°
2026-05-06 21:38 24.31402 -147.69949 35132 ft 504 kts 62°
2026-05-06 21:38 24.34505 -147.63052 35133 ft 504 kts 62°
2026-05-06 21:39 24.37603 -147.56158 35130 ft 504 kts 62°
2026-05-06 21:39 24.40697 -147.49260 35141 ft 504 kts 62°
2026-05-06 21:40 24.43789 -147.42358 35132 ft 504 kts 62°
2026-05-06 21:40 24.46853 -147.35506 35136 ft 503 kts 62°
2026-05-06 21:41 24.49954 -147.28563 35130 ft 503 kts 62°
2026-05-06 21:41 24.53013 -147.21702 35138 ft 503 kts 62°
2026-05-06 21:42 24.56088 -147.14795 35141 ft 503 kts 62°
2026-05-06 21:42 24.59159 -147.07887 35140 ft 503 kts 62°
2026-05-06 21:43 24.62227 -147.00975 35142 ft 503 kts 62°
2026-05-06 21:43 24.64779 -146.95220 35138 ft 503 kts 62°
2026-05-06 21:44 24.67837 -146.88310 35147 ft 503 kts 62°
2026-05-06 21:44 24.70892 -146.81398 35139 ft 502 kts 62°
2026-05-06 21:45 24.73943 -146.74483 35141 ft 502 kts 62°
2026-05-06 21:45 24.76990 -146.67570 35137 ft 502 kts 62°
2026-05-06 21:46 24.80030 -146.60659 35139 ft 502 kts 62°
2026-05-06 21:46 24.83068 -146.53744 35144 ft 502 kts 62°
2026-05-06 21:47 24.86102 -146.46826 35150 ft 501 kts 62°
2026-05-06 21:47 24.89131 -146.39909 35153 ft 501 kts 62°
2026-05-06 21:48 24.92158 -146.32987 35153 ft 501 kts 62°
2026-05-06 21:48 24.95179 -146.26066 35151 ft 501 kts 62°
2026-05-06 21:49 24.98199 -146.19137 35149 ft 501 kts 62°
2026-05-06 21:49 25.01214 -146.12210 35153 ft 501 kts 62°
2026-05-06 21:50 25.04227 -146.05277 35154 ft 501 kts 62°
2026-05-06 21:50 25.07235 -145.98343 35153 ft 501 kts 62°
2026-05-06 21:51 25.10240 -145.91406 35157 ft 501 kts 62°
2026-05-06 21:51 25.13223 -145.84508 35146 ft 501 kts 62°
2026-05-06 21:52 25.16223 -145.77561 35144 ft 501 kts 62°
2026-05-06 21:52 25.19218 -145.70615 35147 ft 501 kts 62°
2026-05-06 21:53 25.22209 -145.63664 35162 ft 501 kts 62°
2026-05-06 21:53 25.25198 -145.56709 35150 ft 501 kts 62°
2026-05-06 21:54 25.28184 -145.49751 35152 ft 501 kts 62°
2026-05-06 21:54 25.31167 -145.42787 35156 ft 501 kts 62°
2026-05-06 21:55 25.34143 -145.35824 35160 ft 501 kts 62°
2026-05-06 21:55 25.37118 -145.28851 35159 ft 501 kts 62°
2026-05-06 21:56 25.40089 -145.21877 35159 ft 501 kts 62°
2026-05-06 21:56 25.43055 -145.14903 35158 ft 501 kts 62°
2026-05-06 21:57 25.46020 -145.07922 35159 ft 501 kts 62°
2026-05-06 21:57 25.48982 -145.00935 35158 ft 502 kts 62°
2026-05-06 21:58 25.51943 -144.93940 35162 ft 502 kts 62°
2026-05-06 21:58 25.54899 -144.86943 35160 ft 502 kts 62°
2026-05-06 21:59 25.57852 -144.79946 35166 ft 502 kts 62°
2026-05-06 21:59 25.60801 -144.72944 35162 ft 501 kts 62°
2026-05-06 22:00 25.63748 -144.65937 35163 ft 501 kts 62°
2026-05-06 22:00 25.66671 -144.58976 35166 ft 502 kts 62°
2026-05-06 22:01 25.69611 -144.51963 35161 ft 502 kts 62°
2026-05-06 22:01 25.72554 -144.44948 35165 ft 502 kts 62°
2026-05-06 22:02 25.75492 -144.37914 35170 ft 503 kts 62°
2026-05-06 22:02 25.78428 -144.30866 35165 ft 503 kts 62°
2026-05-06 22:03 25.81364 -144.23809 35165 ft 504 kts 62°
2026-05-06 22:03 25.84300 -144.16746 35164 ft 504 kts 62°
2026-05-06 22:04 25.87235 -144.09675 35168 ft 504 kts 63°
2026-05-06 22:04 25.90168 -144.02597 35167 ft 504 kts 62°
2026-05-06 22:05 25.93095 -143.95522 35167 ft 505 kts 63°
2026-05-06 22:05 25.96023 -143.88431 35168 ft 505 kts 63°
2026-05-06 22:06 25.98949 -143.81334 35170 ft 505 kts 63°
2026-05-06 22:06 26.01872 -143.74232 35171 ft 505 kts 63°
2026-05-06 22:07 26.04793 -143.67123 35169 ft 506 kts 63°
2026-05-06 22:07 26.07714 -143.60004 35171 ft 506 kts 63°
2026-05-06 22:08 26.10631 -143.52879 35174 ft 506 kts 63°
2026-05-06 22:08 26.13548 -143.45746 35176 ft 507 kts 63°
2026-05-06 22:09 26.16460 -143.38609 35178 ft 507 kts 63°
2026-05-06 22:09 26.19373 -143.31461 35180 ft 507 kts 63°
2026-05-06 22:10 26.22263 -143.24354 35181 ft 507 kts 63°
2026-05-06 22:10 26.25170 -143.17194 35177 ft 507 kts 63°
2026-05-06 22:11 26.28074 -143.10030 35178 ft 508 kts 63°
2026-05-06 22:11 26.30977 -143.02855 35178 ft 508 kts 63°
2026-05-06 22:12 26.33879 -142.95671 35179 ft 508 kts 63°
2026-05-06 22:12 26.36779 -142.88480 35181 ft 509 kts 63°
2026-05-06 22:13 26.39676 -142.81282 35182 ft 509 kts 63°
2026-05-06 22:13 26.42573 -142.74073 35181 ft 509 kts 63°
2026-05-06 22:14 26.45467 -142.66859 35180 ft 509 kts 63°
2026-05-06 22:14 26.48356 -142.59644 35180 ft 509 kts 63°
2026-05-06 22:15 26.51242 -142.52423 35182 ft 509 kts 63°
2026-05-06 22:15 26.54127 -142.45194 35182 ft 509 kts 63°
2026-05-06 22:16 26.57005 -142.37966 35183 ft 509 kts 64°
2026-05-06 22:16 26.59880 -142.30737 35188 ft 509 kts 64°
2026-05-06 22:17 26.62731 -142.23554 35186 ft 509 kts 64°
2026-05-06 22:17 26.65595 -142.16325 35187 ft 509 kts 64°
2026-05-06 22:18 26.68456 -142.09091 35188 ft 509 kts 64°
2026-05-06 22:18 26.71312 -142.01857 35191 ft 508 kts 64°
2026-05-06 22:19 26.74162 -141.94624 35192 ft 508 kts 64°
2026-05-06 22:19 26.77007 -141.87392 35192 ft 507 kts 64°
2026-05-06 22:20 26.79845 -141.80164 35194 ft 507 kts 64°
2026-05-06 22:20 26.82679 -141.72936 35192 ft 507 kts 64°
2026-05-06 22:21 26.85503 -141.65718 35195 ft 506 kts 64°
2026-05-06 22:21 26.88324 -141.58494 35194 ft 506 kts 64°
2026-05-06 22:22 26.91139 -141.51273 35205 ft 506 kts 64°
2026-05-06 22:22 26.93949 -141.44053 35195 ft 505 kts 64°
2026-05-06 22:23 26.96755 -141.36830 35201 ft 505 kts 64°
2026-05-06 22:23 26.99556 -141.29612 35191 ft 504 kts 64°
2026-05-06 22:24 27.02346 -141.22410 35198 ft 503 kts 64°
2026-05-06 22:24 27.05122 -141.15215 35207 ft 502 kts 64°
2026-05-06 22:25 27.07894 -141.08024 35206 ft 502 kts 64°
2026-05-06 22:25 27.10645 -141.00878 35204 ft 502 kts 64°
2026-05-06 22:26 27.13410 -140.93683 35206 ft 502 kts 64°
2026-05-06 22:26 27.16173 -140.86479 35209 ft 502 kts 64°
2026-05-06 22:27 27.18935 -140.79265 35207 ft 503 kts 64°
2026-05-06 22:27 27.21696 -140.72043 35206 ft 503 kts 64°
2026-05-06 22:28 27.24452 -140.64816 35209 ft 503 kts 64°
2026-05-06 22:28 27.27208 -140.57578 35210 ft 504 kts 64°
2026-05-06 22:29 27.29959 -140.50339 35210 ft 504 kts 64°
2026-05-06 22:29 27.32709 -140.43090 35209 ft 504 kts 64°
2026-05-06 22:30 27.35456 -140.35836 35214 ft 504 kts 65°
2026-05-06 22:30 27.38200 -140.28576 35213 ft 504 kts 65°
2026-05-06 22:31 27.40941 -140.21309 35213 ft 504 kts 65°
2026-05-06 22:31 27.43216 -140.15268 35217 ft 504 kts 65°
2026-05-06 22:32 27.45950 -140.07994 35216 ft 505 kts 65°
2026-05-06 22:32 27.48681 -140.00717 35218 ft 505 kts 65°
2026-05-06 22:33 27.51409 -139.93433 35216 ft 505 kts 65°
2026-05-06 22:33 27.54133 -139.86147 35217 ft 505 kts 65°
2026-05-06 22:34 27.56854 -139.78853 35222 ft 505 kts 65°
2026-05-06 22:34 27.59573 -139.71553 35225 ft 505 kts 65°
2026-05-06 22:35 27.62288 -139.64248 35218 ft 505 kts 65°
2026-05-06 22:35 27.64999 -139.56940 35225 ft 505 kts 65°
2026-05-06 22:36 27.67705 -139.49631 35223 ft 505 kts 65°
2026-05-06 22:36 27.70409 -139.42316 35225 ft 505 kts 65°
2026-05-06 22:37 27.73109 -139.34996 35225 ft 505 kts 65°
2026-05-06 22:37 27.75805 -139.27673 35224 ft 505 kts 65°
2026-05-06 22:38 27.78496 -139.20349 35227 ft 505 kts 65°
2026-05-06 22:38 27.81185 -139.13016 35228 ft 505 kts 65°
2026-05-06 22:39 27.83849 -139.05736 35229 ft 505 kts 65°
2026-05-06 22:39 27.86529 -138.98401 35227 ft 505 kts 65°
2026-05-06 22:40 27.89203 -138.91067 35229 ft 505 kts 65°
2026-05-06 22:40 27.91873 -138.83728 35232 ft 505 kts 65°
2026-05-06 22:41 27.95872 -138.72706 35230 ft 505 kts 65°
2026-05-06 22:42 27.98531 -138.65357 35235 ft 505 kts 65°
2026-05-06 22:42 28.01186 -138.58003 35235 ft 505 kts 65°
2026-05-06 22:43 28.03838 -138.50643 35237 ft 505 kts 65°
2026-05-06 22:43 28.06485 -138.43282 35236 ft 505 kts 65°
2026-05-06 22:44 28.09130 -138.35913 35240 ft 505 kts 65°
2026-05-06 22:44 28.11751 -138.28596 35240 ft 505 kts 65°
2026-05-06 22:45 28.14405 -138.21173 35240 ft 505 kts 65°
2026-05-06 22:45 28.17019 -138.13846 35240 ft 505 kts 65°
2026-05-06 22:46 28.19647 -138.06466 35240 ft 505 kts 65°
2026-05-06 22:46 28.22270 -137.99086 35242 ft 505 kts 65°
2026-05-06 22:47 28.24888 -137.91703 35243 ft 505 kts 65°
2026-05-06 22:47 28.27503 -137.84315 35245 ft 505 kts 65°
2026-05-06 22:48 28.30114 -137.76925 35246 ft 504 kts 65°
2026-05-06 22:48 28.32720 -137.69531 35242 ft 504 kts 66°
2026-05-06 22:49 28.35320 -137.62140 35245 ft 504 kts 66°
2026-05-06 22:49 28.37920 -137.54737 35245 ft 504 kts 66°
2026-05-06 22:50 28.40512 -137.47340 35243 ft 504 kts 66°
2026-05-06 22:50 28.43099 -137.39942 35243 ft 504 kts 66°
2026-05-06 22:51 28.45683 -137.32537 35244 ft 504 kts 66°
2026-05-06 22:51 28.48262 -137.25132 35247 ft 504 kts 66°
2026-05-06 22:52 28.50838 -137.17721 35236 ft 504 kts 66°
2026-05-06 22:52 28.53408 -137.10310 35241 ft 504 kts 66°
2026-05-06 22:53 28.55974 -137.02895 35244 ft 504 kts 66°
2026-05-06 22:53 28.58537 -136.95477 35252 ft 504 kts 66°
2026-05-06 22:54 28.61077 -136.88109 35252 ft 503 kts 66°
2026-05-06 22:54 28.63629 -136.80690 35246 ft 503 kts 66°
2026-05-06 22:55 28.66177 -136.73266 35247 ft 503 kts 66°
2026-05-06 22:55 28.68723 -136.65835 35245 ft 503 kts 66°
2026-05-06 22:56 28.71262 -136.58407 35245 ft 503 kts 67°
2026-05-06 22:56 28.73797 -136.50977 35250 ft 503 kts 67°
2026-05-06 22:57 28.76327 -136.43546 35252 ft 503 kts 67°
2026-05-06 22:57 28.78852 -136.36111 35253 ft 503 kts 67°
2026-05-06 22:58 28.81373 -136.28677 35250 ft 503 kts 67°
2026-05-06 22:58 28.83890 -136.21236 35257 ft 502 kts 67°
2026-05-06 22:59 28.86400 -136.13802 35244 ft 502 kts 67°
2026-05-06 22:59 28.88906 -136.06362 35246 ft 502 kts 67°
2026-05-06 23:00 28.91405 -135.98928 35244 ft 502 kts 67°
2026-05-06 23:00 28.93900 -135.91490 35244 ft 501 kts 67°
2026-05-06 23:01 28.96390 -135.84053 35248 ft 501 kts 68°
2026-05-06 23:01 28.98858 -135.76664 35254 ft 501 kts 68°
2026-05-06 23:02 29.01336 -135.69229 35254 ft 501 kts 68°
2026-05-06 23:02 29.03812 -135.61784 35251 ft 501 kts 68°
2026-05-06 23:03 29.06284 -135.54338 35249 ft 501 kts 68°
2026-05-06 23:03 29.08748 -135.46898 35251 ft 500 kts 68°
2026-05-06 23:04 29.11207 -135.39455 35247 ft 500 kts 68°
2026-05-06 23:04 29.13661 -135.32014 35251 ft 500 kts 68°
2026-05-06 23:05 29.16111 -135.24571 35249 ft 500 kts 68°
2026-05-06 23:05 29.18554 -135.17130 35253 ft 499 kts 68°
2026-05-06 23:06 29.20992 -135.09690 35250 ft 499 kts 68°
2026-05-06 23:06 29.23427 -135.02241 35248 ft 499 kts 68°
2026-05-06 23:07 29.25856 -134.94794 35259 ft 499 kts 68°
2026-05-06 23:07 29.28281 -134.87344 35252 ft 499 kts 68°
2026-05-06 23:08 29.30704 -134.79887 35255 ft 499 kts 68°
2026-05-06 23:08 29.33120 -134.72430 35251 ft 499 kts 68°
2026-05-06 23:09 29.35519 -134.65015 35258 ft 499 kts 68°
2026-05-06 23:09 29.37927 -134.57552 35254 ft 499 kts 68°
2026-05-06 23:10 29.40332 -134.50080 35256 ft 500 kts 68°
2026-05-06 23:10 29.42735 -134.42601 35255 ft 500 kts 68°
2026-05-06 23:11 29.45133 -134.35121 35259 ft 500 kts 68°
2026-05-06 23:11 29.47527 -134.27636 35260 ft 500 kts 68°
2026-05-06 23:12 29.49916 -134.20149 35256 ft 499 kts 68°